Showing default

NILESAT 301, 52817

Orbit data source: Space-Track

NILESAT 301, 52817 is a payload satellite owned by Nilesat (EG) in GEO that was launched on Wed, 08 Jun 2022 UTC via an FALCON 9 launch vehicle from the Air Force Eastern Test Range (AFETR). Payload-class satellites include a variety of spacecraft equipped with specific instruments for various scientific and technological missions. These include communications satellites like Starlink; space stations such as the ISS; scientific satellites like the Hubble; Earth observation satellites from companies like Planet Labs, Umbra, and HawkEye 360; GPS; miniature CubeSats for education and research; and military/defense satellites.

Not visible in the next 10 days
Identifier
52817, 2022-061A
Orbit
GEO
Country
Flag of UnknownUnknown / EGYP
Related business
Manufacturer
Thales Alenia
Mission
Operational Civil Communications
Bus & Motor
SPACEBUS 4000B2, S400
Mass
3,938 kg wet, ~1,500 kg dry
Launch date (UTC)
2022-06-08 (4 years ago)
Launch vehicle
FALCON 9
Launch site
Air Force Eastern Test Range (AFETR)
Object type
Payload
Rocket body
Debris
Shape & HBR
Box + 2 Pan, 14.8 m
Radar Cross Section
20.286 m², Large (>1 m²)

Expand to show TLE details & history
Last TLE update: 10 hours ago

TLE from 10 hours ago
0 NILESAT 301
1 52817U 22061A   25355.15322626 -.00000035  00000-0  00000+0 0  9999
2 52817   0.0460  16.4435 0004466 283.3036 198.3932  1.00272305 12955
Epoch: 2025-12-21T03:40Z
TLE epoch observation values (Epoch: 2025-12-21T03:40:38.748Z)
Latitude
0.05807°
Longitude
-7.01616°
Altitude
35,803.821 km
Speed
3.073 km/s
True Right ascension
09h 12m 27s
True Declination
0° 03' 29"
Sunlit
Object was in daylight at epoch
Visualization orbit readout
Latitude
Unknown
Longitude
Unknown
Altitude
Unknown
Speed
Unknown
Apparent Right ascension
Unknown
Apparent Declination
Unknown
Sunlit
N/A
Visualization observer readout
Local Sidereal Time
12:16:47
Azimuth
Unknown
Elevation
Unknown
Doppler factor
Unknown
Orbital elements
Apogee altitude
35,806.351 km
Perigee altitude
35,768.688 km
Semi-major axis
42,165.657 km
Eccentricity
0.00045
Inclination
0.046°
RAAN
16.4435°
Arg. of periapsis
283.3036°
True anomaly
198.37706°
Mean anomaly
198.3932°
Eccentric anomaly
198.38513°
Mean motion
0.25067 °/min
Orbital period
1,436.14 mins
BSTAR
0
Loading maneuver chart data...
Computing Atmospheric mass density...
Loading historical data...
Loading historical data...
Loading historical data...
Loading historical data...
Loading historical data...
Loading historical data...
Loading historical data...
Other satellites on launch #61 in the year 2022 (2022-06-08 UTC)

Documentation

Showing up to 5 results
|